Terminal Aerodrome Forecast
Issued by NWS Mt. Holly, NJ

Home | Current Version | Previous Version | Text Only | Print | Product List | Glossary On
Versions: 1 2 3 4 5 6 7 8 9 10 11 12 13 14 15 16 17 18 19 20 21 22 23 24 25 26 27 28 29 30 31 32 33 34 35 36 37 38 39 40 41 42 43 44 45 46 47 48 49 50
000
FTAK31 PANC 311134
TAFABE
TAF
PABE 311134Z 3112/0112 25008KT P6SM SCT050 BKN070
     FM311400 30005KT 3SM BR BKN005 OVC035
     FM312000 30008KT P6SM FEW008 SCT045 BKN060
     FM010000 29011KT P6SM BKN070
     FM010500 30010KT P6SM SCT250=

USA.gov is the U.S. government's official web portal to all federal, state and local government web resources and services.